Regional Weather Roundup
Issued by NWS

Home | Current Version | Previous Version | Text Only | Print | Product List | Glossary Off
Versions: 1 2 3 4 5 6 7 8 9 10 11 12 13 14 15 16 17 18 19 20 21 22 23 24 25 26 27 28 29 30 31 32 33 34 35 36 37 38 39 40 41 42 43 44 45 46 47 48 49 50

000
ASUS43 KBIS 181810
RWRND

NORTH DAKOTA REGIONAL WEATHER ROUNDUP
NATIONAL WEATHER SERVICE BISMARCK ND
100 PM CDT THU SEP 18 2014

NOTE: "FAIR" INDICATES FEW OR NO CLOUDS BELOW 12,000 FEET WITH NO
SIGNIFICANT WEATHER AND/OR OBSTRUCTIONS TO VISIBILITY.


NDZ001>003-009>011-017-181900-
NORTHWEST NORTH DAKOTA

CITY           SKY/WX    TMP DP  RH WIND       PRES   REMARKS
WILLISTON      PTSUNNY   77  53  43 S10       29.68F
6HR MIN TEMP:  55; 6HR MAX TEMP:  77;

MINOT          SUNNY     73  55  53 SE18G29   29.72F
$$

NDZ018>021-031>035-040>046-181900-
SOUTHWEST NORTH DAKOTA

CITY           SKY/WX    TMP DP  RH WIND       PRES   REMARKS
BISMARCK       SUNNY     77  60  55 S18       29.80F
6HR MIN TEMP:  47; 6HR MAX TEMP:  77;

DICKINSON      PTSUNNY   74  57  55 S17       29.76S
GARRISON         N/A     71  59  65 S14G21    29.77F
6HR MIN TEMP:  51; 6HR MAX TEMP:  73;

HETTINGER ARPT MOSUNNY   74  58  57 S13       29.81F
$$

NDZ004>008-012>016-024-026-027-054-181900-
NORTHEAST NORTH DAKOTA

CITY           SKY/WX    TMP DP  RH WIND       PRES   REMARKS
GRAND FORKS    PTSUNNY   59  53  80 SE14      29.93F
DEVILS LAKE    SUNNY     72  54  53 S17       29.84F
$$

NDZ022-023-025-028>030-036>039-047>053-181900-
SOUTHEAST NORTH DAKOTA

CITY           SKY/WX    TMP DP  RH WIND       PRES   REMARKS
FARGO          MOSUNNY   66  53  63 S14       29.94F
6HR MIN TEMP:  42; 6HR MAX TEMP:  66;

JAMESTOWN      SUNNY     72  57  59 S16       29.87F
$$




USA.gov is the U.S. government's official web portal to all federal, state and local government web resources and services.